Location: Unspecified
(0.0000°N, 0.0000°E)
Time: 18:21:04
(UTC+00:00)

Vanguard 1 Rocket - Pass Details

Date: 09 December 2017
Orbit: 653 x 4224 km, 34.3° (Epoch: 23 June)

Event Time Altitude Azimuth Distance (km) Brightness Sun altitude
Rises 12:50:27 0° 209° (SSW) 2,970 10.4 63.1°
Reaches altitude 10° 12:52:56 10° 194° (SSW) 2,133 9.9 62.8°
Maximum altitude 12:56:47 24° 138° (SE) 1,612 9.1 62.3°
Drops below altitude 10° 13:01:52 10° 85° (E) 2,905 9.9 61.6°
Sets 13:05:55 0° 73° (ENE) 4,373 10.7 61.0°
